N2RF KLEB-KSLK

Flight info

Callsign N2RF
Flight time 0h 24m
Altitude 12000
Route DYO GNVEV
Aircraft C700/M-SBDGHM1RWXY/LB2

Departure

Time 2026-04-26 03:01
Airport Lebanon Municipal Airport (KLEB)

Arrival

Time 2026-04-26 03:25
Airport Adirondack Regional Airport (KSLK)
Time Latitude Longitude Altitude Speed Heading
2026-04-26 02:55 43.62840 -72.30985 569 ft 0 kts 347°
2026-04-26 02:58 43.62837 -72.30968 567 ft 4 kts 135°
2026-04-26 02:59 43.62811 -72.30907 571 ft 14 kts 66°
2026-04-26 02:59 43.62842 -72.30831 572 ft 0 kts 59°
2026-04-26 03:00 43.62869 -72.30766 572 ft 18 kts 65°
2026-04-26 03:00 43.62772 -72.30692 571 ft 25 kts 168°
2026-04-26 03:00 43.62326 -72.30560 580 ft 109 kts 168°
2026-04-26 03:01 43.61358 -72.30282 881 ft 163 kts 169°
2026-04-26 03:01 43.60023 -72.30454 1365 ft 220 kts 211°
2026-04-26 03:01 43.59147 -72.32174 2823 ft 230 kts 256°
2026-04-26 03:01 43.59310 -72.34400 4184 ft 247 kts 290°
2026-04-26 03:02 43.60019 -72.36640 5516 ft 260 kts 293°
2026-04-26 03:02 43.60608 -72.39049 6991 ft 270 kts 285°
2026-04-26 03:02 43.61058 -72.41577 8577 ft 272 kts 287°
2026-04-26 03:02 43.61758 -72.44019 10240 ft 276 kts 294°
2026-04-26 03:03 43.62537 -72.46573 11380 ft 302 kts 291°
2026-04-26 03:03 43.63288 -72.49466 11998 ft 343 kts 289°
2026-04-26 03:03 43.64090 -72.52689 12011 ft 364 kts 289°
2026-04-26 03:03 43.64953 -72.56009 12006 ft 370 kts 290°
2026-04-26 03:04 43.65849 -72.59355 11998 ft 372 kts 290°
2026-04-26 03:04 43.66727 -72.62714 11997 ft 372 kts 290°
2026-04-26 03:04 43.67595 -72.66082 12004 ft 372 kts 290°
2026-04-26 03:04 43.68472 -72.69444 11998 ft 372 kts 290°
2026-04-26 03:05 43.69348 -72.72808 11999 ft 372 kts 290°
2026-04-26 03:05 43.70218 -72.76161 12011 ft 371 kts 290°
2026-04-26 03:05 43.71078 -72.79474 12006 ft 370 kts 290°
2026-04-26 03:05 43.71954 -72.82873 12004 ft 371 kts 290°
2026-04-26 03:06 43.72816 -72.86194 12003 ft 373 kts 290°
2026-04-26 03:06 43.73687 -72.89571 12006 ft 373 kts 290°
2026-04-26 03:06 43.74556 -72.92948 11998 ft 372 kts 290°
2026-04-26 03:06 43.75421 -72.96315 12002 ft 371 kts 290°
2026-04-26 03:07 43.76288 -72.99678 11995 ft 371 kts 290°
2026-04-26 03:07 43.77152 -73.03047 11998 ft 373 kts 290°
2026-04-26 03:07 43.78019 -73.06435 11990 ft 374 kts 290°
2026-04-26 03:07 43.78886 -73.09820 11990 ft 372 kts 290°
2026-04-26 03:08 43.79721 -73.13096 11875 ft 347 kts 290°
2026-04-26 03:08 43.80499 -73.16141 11709 ft 322 kts 290°
2026-04-26 03:08 43.81212 -73.18942 11695 ft 296 kts 290°
2026-04-26 03:08 43.81882 -73.21570 11273 ft 288 kts 290°
2026-04-26 03:09 43.82547 -73.24185 10702 ft 288 kts 290°
2026-04-26 03:09 43.83209 -73.26788 10179 ft 285 kts 290°
2026-04-26 03:09 43.83863 -73.29374 9620 ft 283 kts 290°
2026-04-26 03:09 43.84514 -73.31936 9058 ft 281 kts 290°
2026-04-26 03:10 43.85159 -73.34487 8502 ft 280 kts 290°
2026-04-26 03:10 43.85803 -73.37032 7947 ft 279 kts 290°
2026-04-26 03:10 43.86441 -73.39557 7511 ft 275 kts 290°
2026-04-26 03:10 43.87058 -73.42005 7496 ft 267 kts 290°
2026-04-26 03:11 43.87681 -73.44477 7493 ft 277 kts 290°
2026-04-26 03:11 43.88320 -73.47012 7494 ft 279 kts 290°
2026-04-26 03:11 43.88745 -73.48700 7492 ft 279 kts 290°
2026-04-26 03:11 43.89381 -73.51234 7494 ft 278 kts 289°
2026-04-26 03:12 43.90017 -73.53768 7491 ft 278 kts 290°
2026-04-26 03:12 43.90650 -73.56291 7488 ft 277 kts 289°
2026-04-26 03:12 43.91283 -73.58817 7493 ft 277 kts 289°
2026-04-26 03:12 43.91913 -73.61337 7490 ft 277 kts 289°
2026-04-26 03:13 43.92545 -73.63864 7494 ft 277 kts 289°
2026-04-26 03:13 43.93175 -73.66386 7492 ft 277 kts 289°
2026-04-26 03:13 43.93806 -73.68920 7498 ft 278 kts 289°
2026-04-26 03:13 43.94438 -73.71451 7491 ft 278 kts 289°
2026-04-26 03:14 43.95069 -73.73992 7491 ft 278 kts 289°
2026-04-26 03:14 43.95700 -73.76529 7493 ft 278 kts 289°
2026-04-26 03:14 43.96331 -73.79071 7497 ft 279 kts 289°
2026-04-26 03:14 43.96963 -73.81615 7496 ft 279 kts 289°
2026-04-26 03:15 43.97593 -73.84160 7499 ft 279 kts 289°
2026-04-26 03:15 43.98225 -73.86714 7500 ft 279 kts 289°
2026-04-26 03:15 43.98854 -73.89259 7497 ft 278 kts 289°
2026-04-26 03:15 43.99472 -73.91758 7500 ft 277 kts 289°
2026-04-26 03:16 44.00096 -73.94285 7500 ft 276 kts 289°
2026-04-26 03:16 44.00716 -73.96806 7500 ft 276 kts 289°
2026-04-26 03:16 44.01339 -73.99332 7499 ft 277 kts 289°
2026-04-26 03:16 44.01961 -74.01870 7497 ft 277 kts 289°
2026-04-26 03:17 44.02584 -74.04405 7500 ft 278 kts 289°
2026-04-26 03:17 44.03207 -74.06943 7499 ft 278 kts 289°
2026-04-26 03:17 44.03831 -74.09493 7499 ft 278 kts 289°
2026-04-26 03:17 44.04455 -74.12039 7499 ft 279 kts 289°
2026-04-26 03:18 44.05079 -74.14591 7502 ft 279 kts 289°
2026-04-26 03:18 44.05702 -74.17144 7500 ft 279 kts 289°
2026-04-26 03:18 44.06324 -74.19699 7500 ft 279 kts 290°
2026-04-26 03:18 44.06948 -74.22251 7503 ft 279 kts 290°
2026-04-26 03:19 44.07791 -74.24655 7503 ft 277 kts 306°
2026-04-26 03:19 44.09058 -74.26642 7406 ft 270 kts 319°
2026-04-26 03:19 44.10507 -74.28321 6800 ft 273 kts 322°
2026-04-26 03:19 44.11956 -74.30001 6303 ft 270 kts 321°
2026-04-26 03:20 44.13391 -74.31685 5782 ft 269 kts 321°
2026-04-26 03:20 44.14812 -74.33356 5406 ft 264 kts 320°
2026-04-26 03:20 44.16186 -74.34971 5399 ft 258 kts 321°
2026-04-26 03:20 44.17743 -74.36275 5391 ft 266 kts 339°
2026-04-26 03:21 44.19544 -74.36867 5387 ft 267 kts 355°
2026-04-26 03:21 44.21360 -74.36719 5042 ft 261 kts 12°
2026-04-26 03:21 44.23061 -74.35808 4451 ft 263 kts 29°
2026-04-26 03:21 44.24570 -74.34378 3939 ft 262 kts 36°
2026-04-26 03:22 44.26049 -74.32933 3701 ft 252 kts 35°
2026-04-26 03:22 44.27442 -74.31596 3689 ft 235 kts 35°
2026-04-26 03:22 44.28737 -74.30340 3683 ft 220 kts 36°
2026-04-26 03:22 44.29959 -74.29158 3637 ft 206 kts 36°
2026-04-26 03:23 44.31115 -74.28036 3000 ft 199 kts 36°
2026-04-26 03:23 44.32215 -74.26968 2985 ft 199 kts 36°
2026-04-26 03:23 44.33360 -74.25854 2823 ft 198 kts 36°
2026-04-26 03:23 44.34475 -74.24775 2483 ft 186 kts 35°
2026-04-26 03:24 44.35527 -74.23751 2004 ft 184 kts 34°
2026-04-26 03:24 44.36581 -74.22733 2006 ft 186 kts 35°
2026-04-26 03:24 44.37485 -74.21851 1868 ft 140 kts 34°
2026-04-26 03:24 44.38222 -74.21127 1644 ft 116 kts 31°
2026-04-26 03:25 44.38799 -74.20571 1661 ft 77 kts 34°
2026-04-26 03:25 44.39006 -74.20370 1666 ft 28 kts 35°
2026-04-26 03:25 44.39190 -74.20195 1660 ft 35 kts 35°
2026-04-26 03:25 44.39385 -74.20005 1665 ft 34 kts 34°
2026-04-26 03:26 44.39469 -74.19854 1674 ft 16 kts 120°
2026-04-26 03:26 44.39386 -74.19816 1665 ft 15 kts 218°
2026-04-26 03:26 44.39284 -74.19915 1667 ft 20 kts 215°
2026-04-26 03:26 44.39154 -74.20042 1664 ft 25 kts 214°
2026-04-26 03:27 44.38998 -74.20193 1663 ft 29 kts 215°
2026-04-26 03:27 44.38819 -74.20367 1656 ft 33 kts 215°
2026-04-26 03:27 44.38696 -74.20433 1657 ft 12 kts 144°
2026-04-26 03:27 44.38627 -74.20331 1652 ft 8 kts 73°
2026-04-26 03:28 44.38630 -74.20324 1652 ft 0 kts 57°